Regional Weather Roundup
Issued by NWS

Home | Current Version | Previous Version | Graphics & Text | Print | Product List | Glossary On
Versions: 1 2 3 4 5 6 7 8 9 10 11 12 13 14 15 16 17 18 19 20 21 22 23 24 25 26 27 28 29 30 31 32 33 34 35 36 37 38 39 40 41 42 43 44 45 46 47 48 49 50
000
ASUS45 KBOI 261610
RWRID
WEATHER ROUNDUP FOR IDAHO
NATIONAL WEATHER SERVICE BOISE ID
900 AM MST THU FEB 26 2015

NOTE: "FAIR" INDICATES FEW OR NO CLOUDS BELOW 12000 FEET
WITH NO SIGNIFICANT WEATHER AND/OR OBSTRUCTIONS TO VISIBILITY

IDZ012-014-261700-
SOUTHWEST IDAHO


CITY           SKY/WX    TMP DP  RH WIND       PRES   REMARKS
BOISE          CLOUDY    40  32  73 NW7       30.08R
CALDWELL       CLOUDY    41  30  65 NW5       30.11R
MOUNTAIN HOME  PTSUNNY   39  33  80 NW9       30.07R WCI  32
$$

IDZ016-017-261700-
SOUTHCENTRAL IDAHO


CITY           SKY/WX    TMP DP  RH WIND       PRES   REMARKS
BURLEY         CLOUDY    31  19  61 NW5       30.02R WCI  26
JEROME         CLOUDY    33  30  88 W6        30.05R WCI  28
TWIN FALLS     LGT SNOW  33  29  85 SW7       30.05R FOG     WCI  27
$$

IDZ019>023-261700-
SOUTHEAST IDAHO


CITY           SKY/WX    TMP DP  RH WIND       PRES   REMARKS
IDAHO FALLS    CLOUDY    29  11  47 N15       30.02R WCI  18
POCATELLO      CLOUDY    30  19  63 CALM      30.01R
REXBURG        CLOUDY    24  10  55 NE12      30.03R WCI  13
$$

IDZ006-010-011-018-031-032-261700-
CENTRAL IDAHO MOUNTAINS


CITY           SKY/WX    TMP DP  RH WIND       PRES   REMARKS
MCCALL         LGT SNOW  30  26  85 CALM      30.01R FOG
HAILEY         PTSUNNY   30  27  86 N5        30.02R WCI  25
STANLEY          N/A     24  18  77 CALM      30.00R
SALMON         CLOUDY    28  21  74 CALM      30.06S
CHALLIS        CLOUDY    30  20  66 CALM      30.02R
$$

IDZ002-004-006-007-026-261700-
NORTHERN IDAHO


CITY           SKY/WX    TMP DP  RH WIND       PRES   REMARKS
LEWISTON       LGT RAIN  38  38 100 SE3       30.15S
LOWELL           N/A     34  31  88 CALM      30.18S
COEUR D`ALENE  PTSUNNY   30  27  86 E6        30.13R WCI  24
MULLAN PASS    CLOUDY    20  19  96 SE5       30.02R WCI  13
$$


USA.gov is the U.S. government's official web portal to all federal, state and local government web resources and services.